Погода в Бахте

Погода в Бахте : погода сейчас, прогноз погоды и архив. Всё, что Вы хотите узнать о погоде в Бахте!

Поиск расширенной информации на нашем сайте:

Другие новости

Новости СМИ2

Главная страница сайта

Новости сайта

03.07.2017

Напоминаем, что на нашем специализированном сайте Метеоцентр.Азия вы можете получить высокодетализированные автоматические прогнозы погоды по пунктам России, СНГ и мира в авиационном формате (включающие направление и скорость ветра, видимость, явления погоды, количество и форму облачности, нижнюю и верхнюю границу облачности).


Погода в Бахте - сегодня

Время (UTC), дата Ветер
(°,м/с) 
Видим.   Явления Облачность Т
(°С)
Тd
(°С)
f(%) Тe
(°С)
Pmin
(гПа)
dP
(гПа)
Po
(мм)
O2
(г/м3)
Тmin Tmax R s Состояние
почвы
15 18.02.18 тихо ()   н/о    8/0 верхняя 
[Ci sp]
-15.8 -18.5 80 -16  1024.5  -0.3  763  328           
18 18.02.18 180 (Ю) н/о    4/0 верхняя 
[Ci sp]
-15.4 -18.1 80 -18  1023.9  -0.6  763  327           
21 18.02.18 тихо ()   н/о  слаб. снег  10/0 600 м верхняя 
[Cs]
-17.1 -19.7 80 -17  1023.1  -0.8  762  329           
00 19.02.18 180 (Ю) н/о  слаб. снег  10/10 2000 м 
[As trans]
-16.6 -19.2 80 -19  1022.1  -1  762  328  -17.1    0.2  72  равномерный
сухой снег
100% 
03 19.02.18 180 (Ю) 4000 м  слаб. снег  10/10 600 м 
[Ns]
-14.9 -17.6 80 -17  1021.3  -0.7  761  326           
06 19.02.18 180 (Ю) 10 км  слаб. снег  10/10 2000 м 
[As trans]
-13.2 -15.9 80 -15  1020.3  -1  760  323           
09 19.02.18 180 (Ю) 20000 м  слаб. снег  10/10 2000 м 
[As trans]
-12.9 -15.6 80 -15  1020.4  0.1  760  323           
12 19.02.18 180 (Ю) н/о  {снег}  10/0 средняя 
[As trans]
-13.5 -16.2 80 -16  1020.8  0.4  761  324    -12.9  0.9     
15 19.02.18 180 (Ю) н/о  слаб. снег  10/10 2000 м 
[As trans]
-13.9 -15.9 85 -16  1020.8  761  324           
18 19.02.18 180 (Ю) н/о  слаб. снег  10/10 2000 м 
[As trans]
-14.1 -16.1 85 -16  1020.4  -0.4  760  324           
21 19.02.18 тихо ()   н/о  слаб. снег  10/10 2000 м 
[Ns]
-14.1 -16.8 80 -14  1020.1  -0.3  760  324           
00 20.02.18 тихо ()   н/о  слаб. снег  10/10 2000 м 
[As trans]
-14.5 -16.5 85 -15  1020.8  0.7  761  325  -14.5    74  равномерный
сухой снег
100% 
06 20.02.18 тихо ()   20000 м  {снег}  6/3 600 м верхняя 
[Cu hum|Ci sp]
-15.2 -17.7 81 -15  1022.9  0.6  762  327           
09 20.02.18 тихо ()   20000 м    8/8 2000 м средняя 
[Ac trans]
-13.8 -16.7 79 -14  1023.8  0.9  763  325           
12 20.02.18 тихо ()   н/о  {снег}  9/9 2000 м средняя 
[Ac As]
-14.6 -17.3 80 -15  1024.5  0.7  763  326    -13.8  0.2     
15 20.02.18 тихо ()   н/о    ясно 
-17.3 -19.9 80 -17  1025  0.5  764  330           
18 20.02.18 тихо ()   н/о    ясно 
-20.9 -23.4 80 -21  1025.6  0.5  764  335           
00 21.02.18 тихо ()   н/о    ясно 
-26.7 -29.2 79 -27  1027.1  765  344  -26.7      74  равномерный
сухой снег
100% 
03 21.02.18 тихо ()   20000 м    1/0 верхняя 
[Ci fib]
-29.5 -33.3 70 -30  1028.2  0.9  766  348  -29.5         
06 21.02.18 тихо ()   20000 м    ясно 
-25.6 -28.8 74 -26  1028.8  0.8  766  343           
09 21.02.18 тихо ()   20000 м    ясно 
-23.2 -26.4 75 -23  1029.4  0.6  767  340           
12 21.02.18 тихо ()   20000 м    ясно 
-23 -26.3 74 -23  1030  0.6  767  339    -23       
15 21.02.18 тихо ()   н/о    ясно 
-27.2 -31.1 69 -27  1030  767  345           
18 21.02.18 тихо ()   н/о    ясно 
-30 -33.7 70 -30  1029.9  -0.3  767  349           
21 21.02.18 тихо ()   н/о    ясно 
-32.3 -35.9 70 -32  1030  0.1  767  353           
Время (UTC), дата Ветер
(°,м/с) 
Видим.   Явления Облачность Т
(°С)
Тd
(°С)
f(%) Тe
(°С)
Pmin
(гПа)
dP
(гПа)
Po
(мм)
O2
(г/м3)
Тmin Tmax R s Состояние
почвы

Для получения пояснительной информации подведите курсор к названию столбца.

ПОГОДА в Бахте - архив

Всё, что Вы хотите узнать о погоде в Бахте - удобно и подробно!

Выберите нужную дату (начиная с 1 января 2015* года) и нажмите кнопку "Найти".
Будут отображены архивные сводки погоды по пункту Бахта, начиная с указанной даты.


Отображать данные в формате CSV (для использования в таблицах Excel)


Внимание! Наш архив погоды предназначен исключительно для личного некоммерческого использования в познавательных целях. Если Вам необходимы официальные справки о состоянии погоды (для производственных, юридических, коммерческих и т.п. целей), обращайтесь в органы Росгидромета.

*Примечание: данная дата относится к архиву по метеостанциям СССР (Россия, СНГ, Балтия).
Архив по метеостанциям Зарубежной Европы и Азии (кроме Китая) хранится 10 дней, по другим регионам земного шара (Китай, Африка, Америка, Австралия, Океания) - 1 день.

Бахта - район местоположения метеостанции


Название, широта, долгота, высота метеостанции:
Бахта 62.3°ш. 89.2°д. 58 м над ур. моря [Российская Федерация]

Дополнительная информация

В oтличие oт бoльшинства пoгoдных сайтoв мы публикуем пoдрoбную метеoинфoрмацию в детальнoм прoфессиoнальнoм фoрмате.

Характеристики температуры и влажнoсти вoздуха измеряются на высoте 2 м в тени вдали oт зданий и деревьев.
Скoрoсть ветра измеряется на высoте 10 м (на урoвне рoста челoвека скoрoсть ветра ниже в 1.5-2 раза). Если метеoстанция нахoдится в гoрoде или в лесу, тo скoрoсть ветра занижена на 2-4 м/с пo сравнению с oткрытым местoм. Скoрoсть ветра над акватoриями крупных рек и oзёр, а также на вершинах хoлмoв на 2-5 м/с выше, чем в oбычных услoвиях.
Атмoсфернoе давление в разных тoчках местнoсти мoжет значительнo oтличаться oт давления на метеoстанции, в зависимoсти oт услoвий рельефа (при пoдъёме на 10 м давление пoнижается примернo на 1 мм рт.ст.).